[TLELIST] Archives

 

[TLELIST] Current TLEs

January 20th 2026 PST

0 HST 1 20580U 90037B 26020.25343543 .00011715 00000-0 40065-3 0 9996 2 20580 28.4679 10.2230 0001633 293.2847 66.7576 15.28617704765892 0 ISS (ZARYA) 1 25544U 98067A 26020.17509289 .00021194 00000-0 38548-3 0 9999 2 25544 51.6334 312.1983 0007785 38.3265 321.8276 15.49442598548811 0 CXO 1 25867U 99040B 26018.64236405 .00000848 00000-0 00000-0 0 9997 2 25867 53.6626 121.3152 8075088 310.7798 0.4486 0.37793279 16763 ...Continue Reading

[TLELIST] Current TLEs

January 20th 2026 PST

0 HST 1 20580U 90037B 26020.25343543 .00011715 00000-0 40065-3 0 9996 2 20580 28.4679 10.2230 0001633 293.2847 66.7576 15.28617704765892 0 ISS (ZARYA) 1 25544U 98067A 26020.17509289 .00021194 00000-0 38548-3 0 9999 2 25544 51.6334 312.1983 0007785 38.3265 321.8276 15.49442598548811 0 CXO 1 25867U 99040B 26018.64236405 .00000848 00000-0 00000-0 0 9997 2 25867 53.6626 121.3152 8075088 310.7798 0.4486 0.37793279 16763 ...Continue Reading

[TLELIST] Current TLEs

January 19th 2026 PST

0 HST 1 20580U 90037B 26019.27412279 .00008174 00000-0 27754-3 0 9994 2 20580 28.4679 16.8945 0001656 280.0037 80.0371 15.28594222765742 0 ISS (ZARYA) 1 25544U 98067A 26019.20762778 .00013941 00000-0 25695-3 0 9995 2 25544 51.6336 316.9875 0007810 34.7495 325.4002 15.49401693548660 0 CXO 1 25867U 99040B 26018.64236405 .00000848 00000-0 00000-0 0 9997 2 25867 53.6626 121.3152 8075088 310.7798 0.4486 0.37793279 16763 ...Continue Reading

[TLELIST] Current TLEs

January 19th 2026 PST

0 HST 1 20580U 90037B 26019.27412279 .00008174 00000-0 27754-3 0 9994 2 20580 28.4679 16.8945 0001656 280.0037 80.0371 15.28594222765742 0 ISS (ZARYA) 1 25544U 98067A 26019.20762778 .00013941 00000-0 25695-3 0 9995 2 25544 51.6336 316.9875 0007810 34.7495 325.4002 15.49401693548660 0 CXO 1 25867U 99040B 26018.64236405 .00000848 00000-0 00000-0 0 9997 2 25867 53.6626 121.3152 8075088 310.7798 0.4486 0.37793279 16763 ...Continue Reading

[TLELIST] Current TLEs

January 18th 2026 PST

0 HST 1 20580U 90037B 26017.70719833 .00007191 00000-0 24346-3 0 9998 2 20580 28.4679 27.5688 0001726 259.6743 100.3658 15.28570103765509 0 ISS (ZARYA) 1 25544U 98067A 26017.85314278 .00013231 00000-0 24462-3 0 9995 2 25544 51.6334 323.6922 0007803 29.9146 330.2287 15.49362465548456 0 CXO 1 25867U 99040B 26018.64236405 .00000848 00000-0 00000-0 0 9997 2 25867 53.6626 121.3152 8075088 310.7798 0.4486 0.37793279 16763 ...Continue Reading

[TLELIST] Current TLEs

January 17th 2026 PST

0 HST 1 20580U 90037B 26017.31546324 .00006983 00000-0 23622-3 0 9992 2 20580 28.4678 30.2374 0001747 254.1050 105.9352 15.28565513765449 0 ISS (ZARYA) 1 25544U 98067A 26017.20813769 .00012311 00000-0 22835-3 0 9993 2 25544 51.6336 326.8848 0007806 27.6188 332.5214 15.49346231548351 0 CXO 1 25867U 99040B 26018.64236405 .00000848 00000-0 00000-0 0 9997 2 25867 53.6626 121.3152 8075088 310.7798 0.4486 0.37793279 16763 ...Continue Reading

[TLELIST] Current TLEs

January 16th 2026 PST

0 HST 1 20580U 90037B 26016.33612043 .00005564 00000-0 18677-3 0 9993 2 20580 28.4678 36.9088 0001789 242.6076 117.4337 15.28551886765292 0 ISS (ZARYA) 1 25544U 98067A 26016.24061751 .00009246 00000-0 17374-3 0 9997 2 25544 51.6334 331.6741 0007782 24.2843 335.8511 15.49322747548205 0 CXO 1 25867U 99040B 26002.77389708 .00000599 00000-0 00000-0 0 9992 2 25867 53.4579 121.7282 8107582 310.8774 0.1301 0.37803565 16703 ...Continue Reading

[TLELIST] Current TLEs

January 16th 2026 PST

0 HST 1 20580U 90037B 26016.33612043 .00005564 00000-0 18677-3 0 9993 2 20580 28.4678 36.9088 0001789 242.6076 117.4337 15.28551886765292 0 ISS (ZARYA) 1 25544U 98067A 26016.24061751 .00009246 00000-0 17374-3 0 9997 2 25544 51.6334 331.6741 0007782 24.2843 335.8511 15.49322747548205 0 CXO 1 25867U 99040B 26002.77389708 .00000599 00000-0 00000-0 0 9992 2 25867 53.4579 121.7282 8107582 310.8774 0.1301 0.37803565 16703 ...Continue Reading

[TLELIST] Current TLEs

January 15th 2026 PST

0 HST 1 20580U 90037B 26015.09560905 .00004438 00000-0 14752-3 0 9993 2 20580 28.4676 45.3592 0001846 227.4051 132.6389 15.28538258765106 0 ISS (ZARYA) 1 25544U 98067A 26014.88606923 .00006740 00000-0 12902-3 0 9999 2 25544 51.6333 338.3791 0007761 18.9639 341.1637 15.49293899547992 0 CXO 1 25867U 99040B 26002.77389708 .00000599 00000-0 00000-0 0 9992 2 25867 53.4579 121.7282 8107582 310.8774 0.1301 0.37803565 16703 ...Continue Reading

[TLELIST] Current TLEs

January 14th 2026 PST

0 HST 1 20580U 90037B 26013.52863456 .00005011 00000-0 16760-3 0 9995 2 20580 28.4674 56.0330 0001959 208.9893 151.0594 15.28523711764869 0 ISS (ZARYA) 1 25544U 98067A 26014.17653439 .00007605 00000-0 14457-3 0 9993 2 25544 51.6332 341.8911 0007763 16.2553 343.8684 15.49283642547886 0 CXO 1 25867U 99040B 26002.77389708 .00000599 00000-0 00000-0 0 9992 2 25867 53.4579 121.7282 8107582 310.8774 0.1301 0.37803565 16703 ...Continue Reading
  • This mailing list is a public mailing list - anyone may join or leave, at any time.
  • This mailing list is announce-only.

International Space Station (ISS) / Hubble Space Telescope (HST) / Chandra X-Ray Observatory Orbital Data via EMAIL

Privacy Policy:

Private list